Tracking 35331 objects as of 14-Sep-2026
HD Live streaming from Space Station
objects crossing your sky now

SL-12 R/B(1)


SL-12 R/B(1) is no longer on orbit


NORAD ID: 28196
Int'l Code: 2004-010C
Launch date: March 27, 2004
Source: Commonwealth of Independent States (former USSR) (CIS)
Launch site: TYURATAM MISSILE AND SPACE COMPLEX (TTMTR)
Decay date: 2004-03-29

Note: This is a ROCKET BODY
Your satellite tracking list
Your tracking list is empty




NASA's NSSDC Master Catalog

Two Line Element Set (TLE):
1 28196U 04010C   04088.84908923 +.06526992 +12501-4 +33425-3 0  9996
2 28196 051.6477 237.3031 0005646 288.8099 071.2690 16.42596305000288
Source of the keplerian elements: AFSPC